Helicity
319 235 216 198 185 162 147 133 125 122 118 119 135 114 80 60 34 15 4 1 2 2 7 6 4 -5 -2 1 -3 1 5 2 4 9 12 18 26 28 34 29 31 29 26
340 334 267 235 205 183 161 143 126 109 115 117 128 134 107 98 80 63 40 19 2 3 11 11 16 11 4 5 9 8 11 12 9 6 9 12 15 17 21 19 21 27 28
114 249 318 293 253 220 185 165 147 126 114 124 118 119 123 107 91 95 73 53 42 9 9 10 26 22 19 1 6 17 22 21 15 13 8 6 8 11 12 15 12 14 20
114 112 204 301 273 244 215 185 167 139 128 116 103 105 102 112 100 93 81 83 69 48 33 19 27 25 32 37 50 40 23 25 21 12 13 8 -1 5 6 15 11 14 17
91 98 94 162 275 312 247 232 201 161 133 126 108 90 95 115 105 102 98 93 89 84 72 57 44 49 42 41 42 35 42 26 22 12 10 10 6 -2 -5 5 9 11 24
149 71 62 102 180 173 257 243 243 212 150 87 93 74 73 75 99 99 103 95 107 101 111 89 60 73 84 74 62 45 37 44 36 15 9 8 8 9 -5 -2 3 8 7
198 112 33 85 98 73 150 125 163 215 138 90 91 106 94 98 102 125 135 137 143 128 150 164 149 127 125 164 165 115 85 50 50 59 19 11 15 11 9 5 5 5 1
232 138 99 74 97 217 121 211 116 173 183 165 55 98 100 117 157 198 190 201 217 193 208 220 227 190 161 148 190 217 162 127 82 73 84 60 45 18 7 5 4 1 2
186 185 137 86 109 84 171 128 93 169 130 53 125 39 59 100 144 203 251 244 251 256 246 238 258 271 221 200 219 263 298 270 253 174 140 154 161 131 79 49 39 9 10
197 200 160 101 59 48 55 132 111 113 82 93 105 163 148 155 209 163 229 272 269 267 262 252 250 282 270 249 261 280 272 263 260 263 212 173 134 145 127 116 87 86 126
170 163 148 173 125 99 104 80 104 53 80 90 127 148 168 173 176 163 148 226 218 255 230 232 267 276 289 271 247 280 264 252 203 176 154 142 113 106 106 126 114 99 94
186 225 176 132 151 171 154 121 145 93 89 103 129 153 152 165 176 173 160 178 204 220 225 259 296 276 284 249 263 252 233 212 193 159 126 112 99 75 65 83 89 81 80
141 156 170 195 151 158 162 160 169 142 124 125 139 136 145 144 146 156 146 159 186 199 192 241 281 279 262 236 205 229 219 208 197 191 173 139 122 114 102 95 90 98 80
152 156 160 158 170 178 193 191 170 143 137 150 166 161 145 162 168 170 155 163 181 201 205 182 215 260 235 202 183 217 143 179 176 159 143 139 124 106 109 106 103 95 87
123 145 150 148 158 172 179 162 178 179 158 156 166 161 150 165 169 176 180 169 170 193 196 200 183 200 193 146 138 112 102 138 134 125 130 127 117 103 105 104 105 96 98
113 119 133 142 140 135 148 160 157 171 170 175 166 166 164 157 168 164 174 182 175 158 177 184 188 167 131 125 102 70 70 100 90 99 103 104 103 114 126 128 121 108 101
115 107 107 116 130 135 129 129 130 152 155 155 154 163 160 154 155 163 159 163 165 152 138 150 132 109 88 70 72 47 37 39 46 95 93 102 102 95 101 115 124 114 106
107 113 116 115 114 120 128 131 127 121 132 138 147 151 153 152 147 149 147 145 140 135 112 106 100 100 72 76 51 54 65 61 55 74 108 120 121 113 115 113 115 115 115
128 120 116 127 130 124 119 120 125 126 123 118 121 134 133 139 139 131 135 139 133 129 114 98 80 65 65 61 66 55 54 58 66 100 109 112 130 143 151 146 141 136 128
117 117 119 126 126 124 120 114 122 129 134 127 120 121 115 116 114 117 116 116 115 114 106 111 97 76 46 56 30 45 73 67 78 123 112 104 139 151 156 152 136 125 119
117 106 112 109 113 122 126 125 115 112 125 135 135 132 108 110 107 94 97 105 106 120 114 112 116 103 85 65 69 38 52 50 52 18 82 118 117 122 136 125 126 134 142
86 101 108 108 108 102 88 87 79 98 108 121 133 124 122 122 93 105 110 108 80 89 98 90 88 107 108 104 80 55 52 50 3 18 61 94 74 96 112 125 126 169 210
60 62 68 77 89 93 70 72 69 87 86 84 91 97 103 93 113 96 100 105 92 73 71 74 81 78 88 90 75 83 65 70 76 63 65 25 40 68 54 91 109 136 162
71 79 83 84 91 91 81 85 84 96 94 86 85 82 79 81 80 75 74 79 80 82 83 80 56 52 42 40 58 85 90 87 77 49 20 14 18 71 68 121 100 127 166
71 73 88 103 98 99 79 78 92 118 111 109 109 104 99 98 96 105 92 73 87 93 86 80 84 93 90 92 112 105 103 105 92 89 98 73 36 30 57 48 71 134 150
68 64 72 79 84 97 91 81 90 136 128 118 102 90 74 63 70 87 88 66 92 94 85 88 96 89 92 90 91 97 102 102 95 39 35 116 81 -6 -52 -7 49 92 68
Wind_Speed
37 36 32 31 30 28 27 28 26 25 24 22 20 17 17 19 20 22 25 28 29 30 30 31 32 33 35 37 39 42 44 46 46 45 44 44 43 43 44 44 44 45 46
37 42 39 37 36 35 33 33 31 30 28 26 22 22 22 23 25 26 27 30 31 31 33 32 31 31 32 33 34 36 39 42 44 44 42 42 41 42 42 42 42 42 43
44 41 45 40 43 43 40 38 36 35 33 31 29 27 28 29 30 30 33 33 34 35 35 36 34 33 33 32 32 32 32 36 39 41 42 40 39 39 40 39 40 40 41
43 47 48 42 46 46 45 41 40 39 39 39 38 40 37 36 37 36 35 35 37 37 38 38 35 35 33 34 36 37 33 30 33 35 38 39 38 37 38 38 38 39 39
44 49 47 45 52 48 47 44 42 42 41 45 45 45 47 45 46 44 41 38 38 40 41 39 36 36 35 34 36 37 36 30 29 30 32 35 36 36 37 37 37 36 36
47 47 47 51 47 49 52 46 42 41 44 42 49 50 51 52 49 50 47 45 43 42 43 44 38 38 39 39 37 38 38 38 35 32 33 32 31 31 36 37 37 37 33
48 47 46 46 45 47 45 58 45 42 42 45 48 50 47 47 46 49 48 45 44 42 40 41 38 35 34 36 38 36 38 40 40 39 40 34 32 31 29 33 32 33 34
46 47 50 53 49 49 47 44 45 46 51 51 51 47 50 45 42 43 42 38 37 37 38 39 37 36 34 34 37 37 37 38 39 38 40 41 41 38 35 31 31 33 32
38 43 45 47 47 44 48 46 47 48 61 52 46 46 47 49 45 44 40 37 35 37 39 41 38 35 34 33 35 37 37 37 38 40 39 40 43 44 43 43 43 34 28
43 41 44 47 45 44 46 47 47 50 50 50 47 46 42 43 47 45 42 41 36 38 40 41 39 36 35 34 34 38 39 40 41 43 43 46 48 50 49 51 49 48 49
39 38 38 42 44 41 41 42 43 46 47 51 52 48 48 45 43 46 50 42 39 42 44 39 36 37 36 37 37 41 43 44 46 48 50 51 52 55 57 57 56 56 54
37 39 39 42 44 46 46 45 45 49 47 46 45 43 47 50 51 46 44 43 41 48 45 39 37 39 39 39 42 44 47 49 52 54 55 55 59 61 64 64 64 62 61
40 38 39 44 47 45 47 44 44 45 48 49 46 44 43 44 44 43 45 48 48 51 47 45 43 41 44 45 46 49 53 56 58 60 62 63 63 64 65 66 67 66 68
42 42 40 41 40 43 45 46 42 46 49 49 49 47 47 47 47 47 48 51 56 54 51 50 46 45 48 51 53 55 58 60 61 64 65 65 66 67 66 68 69 70 71
40 40 40 41 41 41 39 40 43 44 49 51 49 50 51 51 50 50 47 52 57 63 61 55 54 50 54 55 58 61 63 66 66 67 69 69 71 71 70 70 70 71 72
40 41 42 43 43 43 42 40 41 42 47 50 51 51 50 50 50 52 51 50 53 60 67 55 54 55 60 61 61 66 69 69 67 70 71 71 72 73 73 73 73 73 74
43 44 44 44 45 45 45 44 43 42 43 48 51 51 53 54 53 52 52 52 54 57 66 62 60 64 66 69 71 70 70 70 70 73 73 73 75 76 76 76 77 79 80
46 47 47 47 47 47 47 47 48 47 47 48 49 50 53 54 57 55 53 55 56 57 62 71 67 68 70 73 74 77 74 71 74 73 76 77 78 79 78 77 77 78 79
50 50 50 50 50 50 50 50 50 51 50 50 50 52 54 52 55 57 59 61 60 60 61 67 71 66 69 72 76 75 76 75 74 76 79 80 76 75 76 80 84 86 86
54 53 53 52 51 53 52 52 53 52 51 52 54 54 57 58 59 59 60 63 62 65 67 71 75 75 72 72 75 80 83 81 86 82 77 71 74 80 83 86 87 86 86
56 56 56 56 54 53 54 55 54 53 54 56 56 56 57 58 60 61 62 64 65 67 71 74 76 76 77 77 80 80 88 89 88 70 75 78 83 86 84 83 84 85 86
60 60 61 60 59 59 57 56 55 57 57 58 60 59 59 60 60 60 60 61 62 66 71 74 78 81 80 80 82 83 87 88 87 66 88 96 87 88 85 83 85 88 91
66 68 67 67 67 63 62 62 60 57 58 59 60 62 62 60 62 62 63 66 67 69 70 73 79 79 83 79 81 84 83 84 89 90 95 98 82 88 80 84 88 93 92
69 71 71 69 70 69 66 64 64 62 61 61 61 61 61 62 62 64 66 69 69 67 68 70 73 76 75 73 75 79 82 86 86 83 77 94 81 92 86 91 90 82 77
69 70 69 70 72 71 67 66 65 65 65 66 64 64 65 65 65 67 69 69 69 70 68 70 71 74 75 75 75 80 83 86 90 82 78 81 81 97 94 84 71 74 79
70 69 71 70 71 72 70 69 67 66 68 67 65 64 64 64 65 67 71 73 77 76 74 73 72 70 71 74 73 70 72 81 84 85 62 82 84 82 89 74 65 82 88
Wind_Direction
268 268 267 270 273 274 274 275 278 283 289 298 304 315 330 337 333 334 330 338 342 346 353 356 359 4 14 19 20 22 25 23 25 23 19 18 19 22 16 18 21 22 24
272 269 267 267 272 275 274 274 275 278 282 287 291 297 305 312 315 316 318 322 331 336 330 335 346 358 6 16 21 19 20 23 25 24 20 16 14 15 21 16 14 18 23
266 269 267 269 271 273 272 272 274 276 277 281 283 288 294 299 302 308 306 314 321 323 323 318 326 337 345 357 10 11 15 19 24 27 25 14 6 7 11 12 7 9 9
282 277 273 271 274 275 272 271 272 272 275 277 278 281 285 288 291 297 304 310 309 315 313 314 321 324 332 337 342 346 1 15 20 28 30 22 9 358 359 3 9 11 15
282 272 276 276 271 271 274 270 270 272 274 274 277 278 279 279 282 286 296 304 307 308 307 310 316 318 324 326 326 329 337 358 11 18 27 24 20 2 349 354 354 14 26
278 282 285 274 276 270 264 272 266 273 274 279 274 277 276 277 280 282 288 294 298 302 303 300 308 313 314 317 320 318 319 322 335 345 351 4 23 31 355 351 355 0 14
278 276 279 281 278 275 280 262 273 272 281 276 275 276 280 284 284 283 285 289 294 298 302 302 308 314 319 320 319 318 314 311 314 323 322 335 348 1 14 2 11 14 6
279 281 277 277 279 270 273 282 280 277 273 282 273 275 274 280 287 289 287 289 294 298 300 304 307 312 316 319 319 318 316 315 313 319 321 322 323 331 341 353 358 356 2
288 284 284 282 281 281 279 280 288 281 264 272 277 275 274 275 278 285 289 289 291 295 297 299 306 312 314 319 319 317 319 318 320 319 325 326 321 322 328 332 331 341 352
282 283 284 285 279 282 275 277 278 277 274 272 276 275 277 281 275 278 283 286 293 296 295 296 303 311 312 312 314 314 313 314 314 314 318 317 313 312 314 313 318 324 328
291 286 289 288 284 285 284 277 278 279 279 270 272 276 274 279 283 281 277 282 285 293 291 295 305 309 312 309 309 310 309 309 308 309 310 311 311 309 307 307 309 310 313
295 291 292 287 284 283 283 277 284 281 279 278 279 284 279 276 277 282 283 282 282 284 287 297 305 306 309 308 307 305 306 306 306 305 306 307 305 306 303 303 303 305 306
291 295 294 290 286 287 287 286 282 283 281 279 282 283 284 284 284 284 283 280 280 281 287 293 297 301 303 306 304 303 303 303 303 302 301 303 304 303 303 302 302 303 301
290 293 293 293 296 294 290 289 288 284 283 283 282 283 281 283 284 284 283 281 279 281 285 286 290 298 300 302 301 301 300 301 301 301 301 302 302 302 303 303 302 302 302
291 294 294 292 293 297 299 298 291 289 284 282 284 283 281 282 283 285 285 283 280 278 279 282 284 292 298 299 299 299 299 299 299 300 300 300 300 300 302 303 304 303 303
291 292 293 293 293 293 296 296 295 294 287 284 283 282 285 287 287 286 287 287 286 281 278 285 287 290 295 298 298 297 297 298 299 299 299 300 300 300 301 302 303 303 304
289 290 292 292 292 292 292 292 292 294 293 290 286 287 285 285 286 287 287 287 286 285 281 285 287 290 292 294 295 297 298 298 299 299 299 300 300 300 301 302 302 301 301
289 289 290 290 291 291 291 290 289 290 291 291 291 290 288 286 284 287 288 286 286 287 285 284 288 290 291 294 295 295 297 299 299 300 300 300 300 300 302 302 302 302 302
286 287 289 288 288 289 289 289 289 288 289 290 290 287 287 290 288 287 286 286 287 288 288 288 288 293 294 296 296 297 298 298 300 301 300 300 302 303 303 303 302 301 300
285 286 286 287 288 287 288 288 288 288 288 288 288 288 287 286 287 287 287 287 287 287 288 288 289 290 293 296 297 296 296 299 298 301 301 303 304 303 303 303 302 302 302
285 285 285 284 286 287 287 286 287 287 288 288 289 289 289 289 288 288 288 288 288 288 288 288 289 291 293 295 296 298 296 298 300 301 302 302 303 303 303 304 303 303 303
284 283 283 283 284 284 285 286 285 285 286 287 288 289 291 291 290 290 291 291 291 290 289 290 289 290 293 295 297 298 298 298 296 303 303 299 302 301 303 303 303 303 303
282 281 281 280 280 282 282 282 283 284 285 286 287 288 289 290 291 291 291 291 291 291 291 292 290 292 294 297 298 297 298 298 297 300 302 298 304 302 304 304 304 303 303
283 282 281 281 280 279 280 280 280 281 282 284 286 288 289 290 291 291 291 291 292 293 293 293 293 294 295 298 298 298 299 300 300 302 304 298 304 302 304 304 304 304 306
284 283 283 281 280 280 279 279 279 279 280 281 285 286 287 288 290 291 291 290 292 293 295 295 295 296 296 297 299 300 299 299 299 301 306 301 304 304 305 305 306 306 306
284 285 284 283 281 281 280 278 277 278 278 280 283 286 287 287 290 291 290 289 289 291 294 294 295 296 297 298 299 299 300 297 299 301 308 305 306 310 305 307 308 307 308